Retour au catalogue

YAOGAN 9B DEB

ActifMilitaireLEO
NORAD 38303·DEBRIS·🇨🇳 China

Lancé Mar 5, 2010 depuis Jiuquan Satellite Launch Center

Loading…

Prochains Passages (prochaines 24 heures)

TLE

FraisSource: Space-Track

Époque: Sep 13, 2026, 18:46 UTC

1 38303U 10009G   26256.78223452  .00004984  00000-0  15488-2 0  9994
2 38303  63.3444  74.8097 0465951  26.5781 335.8361 13.94029604114550

Suivez YAOGAN 9B DEB en temps réel avec AllMySat

Download on the App Store